Regional Weather Roundup
Issued by NWS

Home | Current Version | Previous Version | Graphics & Text | Print | Product List | Glossary On
Versions: 1 2 3 4 5 6 7 8 9 10 11 12 13 14 15 16 17 18 19 20 21 22 23 24 25 26 27 28 29 30 31 32 33 34 35 36 37 38 39 40 41 42 43 44 45 46 47 48 49 50
000
ASUS43 KDTX 020610
RWRMI
MICHIGAN HOURLY REGIONAL WEATHER ROUNDUP
NATIONAL WEATHER SERVICE DETROIT/PONTIAC MI
200 AM EDT THU OCT 02 2014

NOTE: "FAIR" INDICATES FEW OR NO CLOUDS BELOW 12,000 FEET WITH NO
SIGNIFICANT WEATHER AND/OR OBSTRUCTION TO VISIBILITY.

MIZ047>049-052>055-059>063-066>070-074>076-081>083-020700-
SOUTHEAST LOWER MICHIGAN

CITY           SKY/WX    TMP DP  RH WIND       PRES   REMARKS
ADRIAN         CLEAR     54  54 100 S5        30.04S FOG
6HR MIN TEMP:  52; 6HR MAX TEMP:  59;

ALMA           PTCLDY    51  49  92 CALM      30.01F
ANN ARBOR      CLOUDY    49  47  93 CALM      30.04R FOG
BAD AXE        PTCLDY    55  55 100 S6        30.06S FOG
6HR MIN TEMP:  51; 6HR MAX TEMP:  59;

DETROIT CITY     N/A    N/A N/A N/A MISG        N/A
DETROIT        CLOUDY    58  57  97 E5        30.04S FOG
6HR MIN TEMP:  56; 6HR MAX TEMP:  59;

FLINT          CLOUDY    57  54  89 SE6       30.04R FOG
6HR MIN TEMP:  51; 6HR MAX TEMP:  62;

GROSSE ILE     MOCLDY    61  57  88 CALM      30.03S FOG
HILLSDALE      CLEAR     56  56 100 SE5       30.02F FOG
6HR MIN TEMP:  49; 6HR MAX TEMP:  56;

HOWELL         CLOUDY    56  55  98 SE7       30.03S FOG
6HR MIN TEMP:  49; 6HR MAX TEMP:  58;


CITY           SKY/WX    TMP DP  RH WIND       PRES   REMARKS
JACKSON        PTCLDY    52  51  97 SE5       30.02S FOG
6HR MIN TEMP:  51; 6HR MAX TEMP:  58;

LAMBERTVILLE     N/A     50  46  87 CALM      30.04S FOG
LANSING        PTCLDY    55  52  89 SE7       30.02S
6HR MIN TEMP:  50; 6HR MAX TEMP:  60;

LAPEER         NOT AVBL
MASON          PTCLDY    53  51  95 CALM      30.01F FOG
MONROE         MOCLDY    50  48  93 CALM      30.02S FOG
MT. CLEMENS    CLEAR     59  59 100 SE3       30.02F
6HR MIN TEMP:  56; 6HR MAX TEMP:  61;

PONTIAC        CLOUDY    59  57  93 SE7       30.04S FOG
6HR MIN TEMP:  57; 6HR MAX TEMP:  61;

PORT HOPE        N/A     57  55  93 VRB3      30.03F
6HR MIN TEMP:  56; 6HR MAX TEMP:  59;

PORT HURON     MOCLDY    55  55 100 E3        30.05F FOG
TRI CITIES     CLEAR     53  50  89 SE7       30.03F
6HR MIN TEMP:  52; 6HR MAX TEMP:  60;

YPSILANTI      FOG       54  50  86 CALM      30.05R VSB 1/4
6HR MIN TEMP:  51; 6HR MAX TEMP:  64;

$$
MIZ043>046-050>051-056>058-064>065-071>073-077>080-020700-
SOUTHWEST LOWER MICHIGAN

CITY           SKY/WX    TMP DP  RH WIND       PRES   REMARKS
BATTLE CREEK   MOCLDY    56  50  80 SE8       30.00F
6HR MIN TEMP:  55; 6HR MAX TEMP:  61;

BENTON HARBOR  CLOUDY    60  49  66 SE12      29.93F
6HR MIN TEMP:  58; 6HR MAX TEMP:  60;

BIG RAPIDS     PTCLDY    47  47 100 CALM      29.98F
6HR MIN TEMP:  47; 6HR MAX TEMP:  52;

COLDWATER      PTCLDY    56  55  93 SE8       30.00F FOG
6HR MIN TEMP:  53; 6HR MAX TEMP:  59;

HOLLAND        CLOUDY    59  50  72 SE8       29.96
6HR MIN TEMP:  55; 6HR MAX TEMP:  59;

GRAND RAPIDS   PTCLDY    54  51  90 SE5       29.99S
6HR MIN TEMP:  52; 6HR MAX TEMP:  58;

MARSHALL       PTCLDY    53  51  94 SE5       30.00F FOG
MUSKEGON       CLOUDY    59  49  69 SE12      29.95F
6HR MIN TEMP:  53; 6HR MAX TEMP:  60;

$$
MIZ016>042-020700-
NORTHERN LOWER MICHIGAN

CITY           SKY/WX    TMP DP  RH WIND       PRES   REMARKS
ALPENA         FOG       52  52 100 SE5       30.02F VSB 3/4
6HR MIN TEMP:  52; 6HR MAX TEMP:  58;

BEAVER ISLAND  CLOUDY    55  54  95 SE3       29.96S
6HR MIN TEMP:  53; 6HR MAX TEMP:  58;

BELLAIRE       MOCLDY    55  54  95 S7        29.97S
6HR MIN TEMP:  47; 6HR MAX TEMP:  58;

CADILLAC       MOCLDY    54  50  85 E5        29.98S
CHARLEVOIX     MOCLDY    53  53  99 SE3       30.00S
6HR MIN TEMP:  53; 6HR MAX TEMP:  60;

FRANKFORT      CLOUDY    61  49  66 E6        29.93F
GAYLORD        MOCLDY    53  52  96 S9        29.99F FOG
6HR MIN TEMP:  51; 6HR MAX TEMP:  57;

GRAYLING       CLOUDY    54  54 100 SE3       30.01S FOG
6HR MIN TEMP:  46; 6HR MAX TEMP:  56;

HARBOR SPRINGS MOCLDY    53  52  95 NE3       29.98F FOG
HOUGHTON LAKE  FOG       50  49  96 E5        30.01F VSB 1/4
6HR MIN TEMP:  47; 6HR MAX TEMP:  54;

OSCODA         FOG       48  48 100 CALM      30.02F VSB 1/4
PELLSTON       CLOUDY    54  53  97 SE6       29.98F FOG
6HR MIN TEMP:  50; 6HR MAX TEMP:  56;

TRAVERSE CITY  MOCLDY    56  49  77 VRB3      29.94F
6HR MIN TEMP:  51; 6HR MAX TEMP:  59;

$$
MIZ007>008-015-020700-
EASTERN UPPER MICHIGAN

CITY           SKY/WX    TMP DP  RH WIND       PRES   REMARKS
MACKINAC ISLAN CLOUDY    56  56  99 SE6       29.99F FOG
6HR MIN TEMP:  56; 6HR MAX TEMP:  57;

NEWBERRY       CLOUDY    56  54  94 S7        29.95S
S. S. MARIE    CLOUDY    57  55  93 SE10      29.99F FOG
6HR MIN TEMP:  55; 6HR MAX TEMP:  57;

$$
MIZ004>006-011>014-085-020700-
CENTRAL UPPER MICHIGAN

CITY           SKY/WX    TMP DP  RH WIND       PRES   REMARKS
MANISTIQUE     CLOUDY    56  54  93 SE7       29.93F
SAWYER-GWINN   CLOUDY    52  50  93 S9        29.91S
$$
MIZ001>003-009>011-084-020700-
WESTERN UPPER MICHIGAN

CITY           SKY/WX    TMP DP  RH WIND       PRES   REMARKS
IRON MOUNTAIN  CLOUDY    53  51  93 S7        29.90S
6HR MIN TEMP:  53; 6HR MAX TEMP:  54; 6HR PCP:  0.05;

HOUGHTON       CLOUDY    55  50  83 SW6       29.85F
6HR MIN TEMP:  54; 6HR MAX TEMP:  55; 6HR PCP:  0.01;

COPPER HARBOR    N/A     55  51  86 SW7       29.85S
6HR MIN TEMP:  54; 6HR MAX TEMP:  55; 6HR PCP:  0.09;

$$

ABBREVIATIONS USED IN REMARKS
   TC - TEMPERATURE IN CELSIUS
  WCI - WIND CHILL INDEX
   HX - HEAT INDEX
  VSB - VISIBILITY



USA.gov is the U.S. government's official web portal to all federal, state and local government web resources and services.